GW5663 Weather Reports


time (UTC)temp
C
wind
direction
speed
KPH
gust
KPH
rain 1hr
cm
rain 24hr
cm
rain mn
cm
humidity
%
barometer
mb
20260510045430 20 173 3.2 4.8 0.00 0.00 0.00 81 1089.9
20260510044927 20 172 3.2 3.2 0.00 0.00 0.00 81 1090.1
20260510044424 20 177 0.0 1.6 0.00 0.00 0.00 82 1090.4
20260510043920 20 176 0.0 0.0 0.00 0.00 0.00 83 1090.1
20260510043416 20 176 0.0 0.0 0.00 0.00 0.00 83 1090.2
20260510042915 20 175 0.0 0.0 0.00 0.00 0.00 82 1090.2
20260510042410 20 175 1.6 3.2 0.00 0.00 0.00 82 1090.1
20260510041906 20 174 1.6 3.2 0.00 0.00 0.00 82 1090.2
20260510041403 20 174 0.0 1.6 0.00 0.00 0.00 83 1090.3
20260510040901 20 174 0.0 0.0 0.00 0.00 0.00 83 1090.3
20260510040358 21 174 0.0 0.0 0.00 0.00 0.00 81 1090.3
20260510035854 21 173 0.0 0.0 0.00 0.00 0.00 79 1090.2
20260510035349 21 173 0.0 1.6 0.00 0.00 0.00 79 1090.0
20260510034845 21 173 0.0 0.0 0.00 0.00 0.00 80 1090.2
20260510034343 21 174 0.0 0.0 0.00 0.00 0.00 80 1090.0
20260510033839 21 174 0.0 0.0 0.00 0.00 0.00 80 1089.9
20260510033336 21 174 0.0 0.0 0.00 0.00 0.00 80 1089.8
20260510032832 21 174 0.0 1.6 0.00 0.00 0.00 79 1089.9
20260510032330 22 174 0.0 0.0 0.00 0.00 0.00 77 1089.8
20260510031825 22 174 0.0 0.0 0.00 0.00 0.00 75 1089.8
20260510031320 22 174 1.6 1.6 0.00 0.00 0.00 74 1089.6
20260510030815 22 174 0.0 1.6 0.00 0.00 0.00 74 1089.5
20260510030312 22 173 0.0 1.6 0.00 0.00 0.00 73 1089.8
20260510025809 22 173 0.0 1.6 0.00 0.00 0.00 73 1089.4
20260510025307 23 173 0.0 1.6 0.00 0.00 0.00 73 1089.6
20260510024803 22 173 1.6 1.6 0.00 0.00 0.00 71 1089.4
20260510024300 23 173 0.0 0.0 0.00 0.00 0.00 72 1089.3
20260510023756 23 173 0.0 0.0 0.00 0.00 0.00 72 1089.5
20260510023253 23 173 0.0 0.0 0.00 0.00 0.00 71 1089.4
20260510022750 23 173 0.0 0.0 0.00 0.00 0.00 69 1089.3
20260510022249 23 173 0.0 0.0 0.00 0.00 0.00 69 1089.2
20260510021749 24 174 3.2 3.2 0.00 0.00 0.00 68 1089.1
20260510021247 24 174 1.6 1.6 0.00 0.00 0.00 67 1089.3
20260510020743 25 174 0.0 0.0 0.00 0.00 0.00 66 1089.1
20260510020242 25 174 3.2 3.2 0.00 0.00 0.00 65 1088.9
20260510015739 25 173 0.0 1.6 0.00 0.00 0.00 65 1088.9
20260510015235 25 174 0.0 0.0 0.00 0.00 0.00 65 1089.0
20260510014730 26 174 0.0 0.0 0.00 0.00 0.00 62 1089.1
20260510014228 26 169 1.6 1.6 0.00 0.00 0.00 60 1088.7
20260510013724 26 177 1.6 3.2 0.00 0.00 0.00 59 1088.5
20260510013219 26 189 1.6 3.2 0.00 0.00 0.00 59 1088.6
20260510012719 26 165 1.6 3.2 0.00 0.00 0.00 59 1088.4
20260510012215 27 160 3.2 4.8 0.00 0.00 0.00 58 1088.2
20260510011715 27 174 1.6 1.6 0.00 0.00 0.00 57 1088.2
20260510011211 28 169 4.8 6.4 0.00 0.00 0.00 55 1088.1
20260510010708 28 173 4.8 6.4 0.00 0.00 0.00 54 1087.9
20260510010204 28 168 3.2 4.8 0.00 0.00 0.00 53 1088.1
20260510005701 28 179 6.4 9.7 0.00 0.00 0.00 51 1088.2
20260510005157 29 179 3.2 3.2 0.00 0.00 0.00 50 1088.2
20260510004655 29 178 3.2 4.8 0.00 0.00 0.00 50 1088.2
20260510004153 29 182 1.6 3.2 0.00 0.00 0.00 49 1088.1
20260510003650 30 167 1.6 1.6 0.00 0.00 0.00 49 1088.1
20260510003146 30 217 3.2 4.8 0.00 0.00 0.00 48 1088.2
20260510002646 30 194 3.2 4.8 0.00 0.00 0.00 48 1088.1
20260510002143 30 197 1.6 3.2 0.00 0.00 0.00 47 1088.0
20260510001640 30 187 3.2 3.2 0.00 0.00 0.00 46 1088.0
20260510001138 30 175 4.8 4.8 0.00 0.00 0.00 45 1088.0
20260510000638 30 200 3.2 3.2 0.00 0.00 0.00 44 1087.7
20260510000137 30 180 4.8 4.8 0.00 0.00 0.00 42 1088.0
20260509235632 30 213 3.2 3.2 0.00 0.00 0.00 43 1087.8
20260509235129 30 203 6.4 6.4 0.00 0.00 0.00 42 1087.9
20260509234625 31 149 0.0 1.6 0.00 0.00 0.00 44 1087.9
20260509234123 31 190 3.2 4.8 0.00 0.00 0.00 44 1087.8
20260509233620 31 156 0.0 1.6 0.00 0.00 0.00 45 1087.9
20260509233118 31 178 4.8 6.4 0.00 0.00 0.00 42 1088.0
20260509232614 30 172 3.2 4.8 0.00 0.00 0.00 43 1088.0
20260509232111 31 192 3.2 6.4 0.00 0.00 0.00 44 1088.0
20260509231608 31 174 3.2 3.2 0.00 0.00 0.00 45 1088.1
20260509231105 30 258 1.6 4.8 0.00 0.00 0.00 45 1088.0
20260509230602 31 163 3.2 4.8 0.00 0.00 0.00 46 1088.0
20260509230059 31 144 4.8 6.4 0.00 0.00 0.00 42 1088.1
20260509225554 31 223 3.2 3.2 0.00 0.00 0.00 45 1088.2
20260509225050 31 203 4.8 6.4 0.00 0.00 0.00 48 1088.4
20260509224546 31 176 4.8 6.4 0.00 0.00 0.00 48 1088.1
20260509224043 30 192 6.4 6.4 0.00 0.00 0.00 50 1088.0
20260509223540 30 143 6.4 9.7 0.00 0.00 0.00 49 1088.1
20260509223038 30 148 4.8 6.4 0.00 0.00 0.00 49 1088.0
20260509222533 30 137 1.6 3.2 0.00 0.00 0.00 50 1088.3
20260509222029 31 199 4.8 6.4 0.00 0.00 0.00 50 1088.2
20260509221525 31 116 3.2 4.8 0.00 0.00 0.00 50 1088.3
20260509221021 31 196 0.0 1.6 0.00 0.00 0.00 52 1088.4
20260509220518 31 249 3.2 3.2 0.00 0.00 0.00 47 1088.4
20260509220014 31 263 0.0 1.6 0.00 0.00 0.00 48 1088.4
20260509215509 30 231 1.6 1.6 0.00 0.00 0.00 51 1088.7
20260509215007 30 214 4.8 4.8 0.00 0.00 0.00 50 1088.5
20260509214504 30 208 4.8 6.4 0.00 0.00 0.00 53 1088.5
20260509214001 30 135 3.2 3.2 0.00 0.00 0.00 53 1088.7
20260509213457 30 149 8.0 9.7 0.00 0.00 0.00 53 1088.9
20260509212954 30 218 3.2 4.8 0.00 0.00 0.00 52 1088.7
20260509212451 30 215 8.0 9.7 0.00 0.00 0.00 51 1089.0
20260509211947 30 201 6.4 9.7 0.00 0.00 0.00 55 1088.9
20260509211443 30 233 1.6 3.2 0.00 0.00 0.00 57 1088.7
20260509210940 29 101 3.2 4.8 0.00 0.00 0.00 57 1089.0
20260509210437 30 217 9.7 12.9 0.00 0.00 0.00 54 1089.2
20260509205932 30 223 4.8 4.8 0.00 0.00 0.00 55 1089.2
20260509205427 30 252 6.4 6.4 0.00 0.00 0.00 55 1089.3
20260509204923 30 187 6.4 9.7 0.00 0.00 0.00 57 1089.5
20260509204419 30 196 3.2 4.8 0.00 0.00 0.00 58 1089.5
20260509203916 30 281 3.2 6.4 0.00 0.00 0.00 57 1089.8
20260509203412 30 236 3.2 4.8 0.00 0.00 0.00 57 1089.7
20260509202910 29 276 4.8 4.8 0.00 0.00 0.00 57 1089.6
20260509202405 30 243 6.4 9.7 0.00 0.00 0.00 56 1089.7
20260509201901 28 270 4.8 6.4 0.00 0.00 0.00 59 1090.1
20260509201356 28 177 6.4 9.7 0.00 0.00 0.00 59 1090.0
20260509200854 28 231 1.6 3.2 0.00 0.00 0.00 61 1090.1
20260509200354 29 184 6.4 6.4 0.00 0.00 0.00 57 1090.1
20260509195851 28 159 3.2 3.2 0.00 0.00 0.00 60 1090.1
20260509195351 28 257 4.8 6.4 0.00 0.00 0.00 62 1090.2
20260509194851 28 239 6.4 9.7 0.00 0.00 0.00 60 1090.2
20260509194347 28 190 11.3 14.5 0.00 0.00 0.00 63 1090.0
20260509193844 28 235 3.2 4.8 0.00 0.00 0.00 64 1090.4
20260509193344 28 189 4.8 6.4 0.00 0.00 0.00 64 1090.3
20260509192840 28 197 8.0 11.3 0.00 0.00 0.00 61 1090.4
20260509192336 27 183 6.4 9.7 0.00 0.00 0.00 62 1090.3
20260509191832 27 255 9.7 11.3 0.00 0.00 0.00 60 1090.9
20260509191327 27 278 9.7 12.9 0.00 0.00 0.00 64 1090.9
20260509190824 27 205 4.8 6.4 0.00 0.00 0.00 64 1090.9
20260509190321 27 233 3.2 4.8 0.00 0.00 0.00 65 1091.1
20260509185818 27 255 6.4 6.4 0.00 0.00 0.00 66 1091.1
20260509185314 27 233 6.4 6.4 0.00 0.00 0.00 66 1091.0
20260509184812 27 226 3.2 4.8 0.00 0.00 0.00 67 1091.1
20260509184309 27 143 8.0 11.3 0.00 0.00 0.00 70 1091.1
20260509183806 27 256 1.6 3.2 0.00 0.00 0.00 69 1091.0
20260509183301 26 199 6.4 6.4 0.00 0.00 0.00 69 1091.3
20260509182756 26 259 4.8 6.4 0.00 0.00 0.00 68 1091.4
20260509182254 26 173 3.2 4.8 0.00 0.00 0.00 70 1091.4
20260509181751 26 149 4.8 6.4 0.00 0.00 0.00 70 1091.6
20260509181249 26 258 4.8 6.4 0.00 0.00 0.00 69 1091.3
20260509180746 26 160 4.8 6.4 0.00 0.00 0.00 68 1091.8
20260509180242 26 218 3.2 3.2 0.00 0.00 0.00 72 1091.6
20260509175738 25 180 4.8 4.8 0.00 0.00 0.00 74 1091.8
20260509175235 26 136 4.8 9.7 0.00 0.00 0.00 73 1092.3
20260509174731 26 208 3.2 3.2 0.00 0.00 0.00 76 1091.8
20260509174226 25 263 3.2 4.8 0.00 0.00 0.00 75 1092.4
20260509173723 25 284 4.8 6.4 0.00 0.00 0.00 75 1092.3
20260509173219 25 193 3.2 3.2 0.00 0.00 0.00 77 1092.3
20260509172715 25 173 9.7 12.9 0.00 0.00 0.00 77 1092.0
20260509172211 25 222 3.2 4.8 0.00 0.00 0.00 80 1092.3
20260509171707 24 173 3.2 4.8 0.00 0.00 0.00 81 1092.2
20260509171203 24 196 6.4 9.7 0.00 0.00 0.00 81 1091.9
20260509170700 24 174 3.2 3.2 0.00 0.00 0.00 82 1091.7
20260509170156 23 151 1.6 3.2 0.00 0.00 0.00 84 1092.0
20260509165655 23 262 6.4 9.7 0.00 0.00 0.00 84 1091.9
20260509165150 23 176 6.4 9.7 0.00 0.00 0.00 85 1091.9
20260509164646 23 164 8.0 11.3 0.00 0.00 0.00 83 1092.0
20260509164142 22 255 4.8 9.7 0.00 0.00 0.00 86 1091.8
20260509163640 22 176 3.2 3.2 0.00 0.00 0.00 87 1092.3
20260509163135 22 196 6.4 9.7 0.00 0.00 0.00 88 1092.4
20260509162633 22 191 4.8 6.4 0.00 0.00 0.00 87 1092.2
20260509162129 21 231 4.8 4.8 0.00 0.00 0.00 89 1092.2
20260509161625 21 205 3.2 4.8 0.00 0.00 0.00 91 1092.3
20260509161120 20 195 6.4 9.7 0.00 0.00 0.00 96 1092.4
20260509160616 19 193 1.6 3.2 0.00 0.00 0.00 99 1092.5
20260509160112 18 226 3.2 3.2 0.00 0.00 0.00 99 1092.4
20260509155608 18 233 3.2 4.8 0.00 0.00 0.00 99 1092.5
20260509155105 18 223 1.6 3.2 0.00 0.00 0.00 99 1092.2
20260509154600 18 176 6.4 6.4 0.00 0.00 0.00 99 1092.6
20260509154058 17 190 1.6 3.2 0.00 0.00 0.00 99 1092.6
20260509153555 18 188 3.2 3.2 0.00 0.00 0.00 99 1092.6
20260509153052 17 238 3.2 3.2 0.00 0.00 0.00 99 1092.6
20260509152548 17 178 3.2 3.2 0.00 0.00 0.00 99 1092.6
20260509152045 17 223 0.0 1.6 0.00 0.00 0.00 99 1092.6
20260509151541 17 218 1.6 1.6 0.00 0.00 0.00 99 1092.7
20260509151039 17 178 3.2 3.2 0.00 0.00 0.00 99 1092.9
20260509150536 17 194 1.6 1.6 0.00 0.00 0.00 99 1092.8
20260509150035 17 149 0.0 0.0 0.00 0.00 0.00 99 1092.9
20260509145530 17 149 0.0 0.0 0.00 0.00 0.00 99 1093.1
20260509145025 16 196 1.6 3.2 0.00 0.00 0.00 99 1092.7
20260509144522 16 171 3.2 4.8 0.00 0.00 0.00 99 1093.0
20260509144020 16 230 0.0 0.0 0.00 0.00 0.00 99 1092.8
20260509143516 16 193 3.2 3.2 0.00 0.00 0.00 99 1092.7
20260509143015 16 178 4.8 4.8 0.00 0.00 0.00 99 1092.7
20260509142510 16 229 6.4 6.4 0.00 0.00 0.00 99 1092.6
20260509142005 17 223 1.6 3.2 0.00 0.00 0.00 99 1092.5
20260509141502 17 201 3.2 4.8 0.00 0.00 0.00 99 1092.4
20260509140959 16 161 3.2 4.8 0.00 0.00 0.00 99 1092.5
20260509140455 17 217 3.2 4.8 0.00 0.00 0.00 99 1092.2
20260509135954 16 170 3.2 3.2 0.00 0.00 0.00 99 1092.3
20260509135450 16 179 8.0 9.7 0.00 0.00 0.00 99 1092.3
20260509134948 16 139 4.8 6.4 0.00 0.00 0.00 99 1092.0
20260509134445 16 150 6.4 9.7 0.00 0.00 0.00 99 1092.0
20260509133943 16 168 9.7 11.3 0.00 0.00 0.00 99 1092.3
20260509133439 16 158 3.2 4.8 0.00 0.00 0.00 99 1092.0
20260509132937 16 186 0.0 0.0 0.00 0.00 0.00 99 1091.7
20260509132435 16 198 1.6 1.6 0.00 0.00 0.00 99 1091.9
20260509131932 16 173 0.0 0.0 0.00 0.00 0.00 99 1091.7
20260509131429 15 171 3.2 4.8 0.00 0.00 0.00 99 1091.7
20260509130926 15 137 1.6 3.2 0.00 0.00 0.00 99 1091.7
20260509130421 15 154 0.0 1.6 0.00 0.00 0.00 99 1091.8
20260509125918 15 193 3.2 6.4 0.00 0.00 0.00 99 1091.4
20260509125415 15 172 6.4 6.4 0.00 0.00 0.00 99 1091.4
20260509124911 15 171 3.2 4.8 0.00 0.00 0.00 99 1091.5
20260509124408 15 181 6.4 6.4 0.00 0.00 0.00 99 1091.4
20260509123906 15 177 4.8 6.4 0.00 0.00 0.00 99 1091.3
20260509123403 15 181 9.7 11.3 0.00 0.00 0.00 99 1091.3
20260509122858 15 158 3.2 3.2 0.00 0.00 0.00 99 1091.3
20260509122355 15 164 6.4 6.4 0.00 0.00 0.00 99 1091.2
20260509121852 15 159 0.0 0.0 0.00 0.00 0.00 99 1091.3
20260509121349 15 169 1.6 3.2 0.00 0.00 0.00 99 1091.4
20260509120848 15 174 3.2 3.2 0.00 0.00 0.00 99 1091.3
20260509120345 15 178 3.2 3.2 0.00 0.00 0.00 99 1091.4
20260509115843 15 188 0.0 0.0 0.00 0.00 0.00 99 1091.4
20260509115340 14 193 1.6 1.6 0.00 0.00 0.00 99 1091.5
20260509114837 14 197 0.0 0.0 0.00 0.00 0.00 99 1091.3
20260509114336 14 198 0.0 0.0 0.00 0.00 0.00 99 1091.2
20260509113835 14 198 0.0 0.0 0.00 0.00 0.00 99 1091.4
20260509113331 14 198 0.0 0.0 0.00 0.00 0.00 99 1091.3
20260509112828 14 198 0.0 0.0 0.00 0.00 0.00 99 1091.2
20260509112325 14 198 3.2 3.2 0.00 0.00 0.00 99 1091.1
20260509111822 14 199 0.0 0.0 0.00 0.00 0.00 99 1091.4
20260509111319 13 198 0.0 0.0 0.00 0.00 0.00 99 1091.6
20260509110817 13 199 0.0 0.0 0.00 0.00 0.00 99 1091.3
20260509110313 14 201 0.0 1.6 0.00 0.00 0.00 99 1091.6
20260509105811 14 201 0.0 0.0 0.00 0.00 0.00 99 1091.7
20260509105309 14 201 0.0 0.0 0.00 0.00 0.00 99 1091.3
20260509104805 14 198 0.0 1.6 0.00 0.00 0.00 99 1091.3
20260509104302 14 200 1.6 1.6 0.00 0.00 0.00 99 1091.3
20260509103800 14 206 1.6 1.6 0.00 0.00 0.00 99 1091.6
20260509103257 14 200 1.6 1.6 0.00 0.00 0.00 99 1091.5
20260509102755 14 142 1.6 1.6 0.00 0.00 0.00 99 1091.9
20260509102253 15 142 0.0 1.6 0.00 0.00 0.00 99 1091.2
20260509101749 15 141 0.0 0.0 0.00 0.00 0.00 99 1091.4
20260509101245 15 143 0.0 0.0 0.00 0.00 0.00 99 1091.3
20260509100742 15 144 0.0 1.6 0.00 0.00 0.00 99 1090.9
20260509100240 15 134 0.0 1.6 0.00 0.00 0.00 99 1091.0
20260509095736 15 144 0.0 1.6 0.00 0.00 0.00 99 1091.4
20260509095233 15 156 0.0 0.0 0.00 0.00 0.00 99 1091.2
20260509094731 15 158 0.0 0.0 0.00 0.00 0.00 99 1091.1
20260509094227 15 159 0.0 0.0 0.00 0.00 0.00 99 1090.6
20260509093725 15 158 0.0 0.0 0.00 0.00 0.00 99 1090.8
20260509093222 15 158 0.0 0.0 0.00 0.00 0.00 99 1090.9
20260509092720 15 158 0.0 0.0 0.00 0.00 0.00 99 1090.8
20260509092218 15 158 0.0 0.0 0.00 0.00 0.00 99 1090.9
20260509091716 15 158 0.0 0.0 0.00 0.00 0.00 99 1090.9
20260509091212 15 158 0.0 0.0 0.00 0.00 0.00 99 1091.0
20260509090710 15 158 0.0 0.0 0.00 0.00 0.00 99 1091.2
20260509090207 15 158 0.0 0.0 0.00 0.00 0.00 99 1090.9
20260509085705 15 158 0.0 0.0 0.00 0.00 0.00 99 1091.1
20260509085201 15 157 0.0 0.0 0.00 0.00 0.00 99 1091.1
20260509084658 15 159 0.0 0.0 0.00 0.00 0.00 99 1091.1
20260509084154 15 159 0.0 0.0 0.00 0.00 0.00 99 1091.1
20260509083653 15 159 0.0 0.0 0.00 0.00 0.00 99 1091.2
20260509083148 15 159 0.0 0.0 0.00 0.00 0.00 99 1091.3
20260509082646 15 159 0.0 0.0 0.00 0.00 0.00 99 1091.0
20260509082142 15 159 0.0 0.0 0.00 0.00 0.00 99 1091.3
20260509081639 15 159 0.0 1.6 0.00 0.00 0.00 99 1091.4
20260509081137 16 159 0.0 0.0 0.00 0.00 0.00 98 1091.4
20260509080635 16 159 0.0 0.0 0.00 0.00 0.00 98 1091.2
20260509080132 16 158 0.0 0.0 0.00 0.00 0.00 98 1091.5
20260509075630 16 177 0.0 0.0 0.00 0.00 0.00 98 1091.2
20260509075128 16 186 3.2 4.8 0.00 0.00 0.00 98 1090.9
20260509074624 16 192 0.0 0.0 0.00 0.00 0.00 98 1091.1
20260509074121 16 159 3.2 4.8 0.00 0.00 0.00 98 1090.9
20260509073618 16 197 4.8 4.8 0.00 0.00 0.00 98 1090.6
20260509073114 16 172 6.4 9.7 0.00 0.00 0.00 98 1090.9
20260509072611 16 181 6.4 6.4 0.00 0.00 0.00 98 1090.7
20260509072108 16 182 3.2 9.7 0.00 0.00 0.00 98 1090.8
20260509071604 16 167 1.6 3.2 0.00 0.00 0.00 98 1090.6
20260509071102 16 175 0.0 0.0 0.00 0.00 0.00 98 1090.3
20260509070559 16 173 3.2 3.2 0.00 0.00 0.00 99 1090.4
20260509070055 16 186 1.6 1.6 0.00 0.00 0.00 99 1090.1
20260509065550 16 175 0.0 1.6 0.00 0.00 0.00 99 1090.2
20260509065047 16 178 1.6 3.2 0.00 0.00 0.00 99 1090.4
20260509064544 16 179 0.0 1.6 0.00 0.00 0.00 99 1090.2
20260509064042 16 183 3.2 3.2 0.00 0.00 0.00 98 1090.6
20260509063537 16 181 0.0 1.6 0.00 0.00 0.00 98 1090.2
20260509063035 16 181 3.2 3.2 0.00 0.00 0.00 98 1090.2
20260509062532 16 183 1.6 1.6 0.00 0.00 0.00 98 1090.4
20260509062030 16 181 1.6 3.2 0.00 0.00 0.00 98 1090.4
20260509061526 16 184 1.6 1.6 0.00 0.00 0.00 98 1090.4
20260509061024 16 175 1.6 3.2 0.00 0.00 0.00 98 1090.3
20260509060521 16 175 3.2 4.8 0.00 0.00 0.00 99 1090.0
20260509060017 16 177 3.2 4.8 0.00 0.00 0.00 99 1090.1
20260509055512 16 180 1.6 1.6 0.00 0.00 0.00 99 1089.9
20260509055009 16 182 1.6 1.6 0.00 0.00 0.00 99 1089.9
20260509054505 16 183 1.6 1.6 0.00 0.00 0.00 99 1089.9
20260509054004 16 195 3.2 4.8 0.00 0.00 0.00 99 1090.2
20260509053501 16 206 3.2 3.2 0.00 0.00 0.00 99 1090.0
20260509052958 16 213 3.2 3.2 0.00 0.00 0.00 99 1090.0
20260509052456 16 246 1.6 3.2 0.00 0.00 0.00 98 1090.1
20260509051954 16 246 1.6 1.6 0.00 0.00 0.00 98 1090.0
20260509051451 16 246 0.0 0.0 0.00 0.00 0.00 98 1090.0
20260509050948 16 246 0.0 0.0 0.00 0.00 0.00 98 1090.0
20260509050444 16 246 0.0 0.0 0.00 0.00 0.00 98 1089.7
20260509045941 16 246 0.0 0.0 0.00 0.03 0.03 99 1089.9